Regional Weather Roundup
Issued by NWS Goodland, KS

Home | Current Version | Previous Version | Graphics & Text | Print | Product List | Glossary On
Versions: 1 2 3 4 5 6 7 8 9 10 11 12 13 14 15 16 17 18 19 20 21 22 23 24 25 26 27 28 29 30 31 32 33 34 35 36 37 38 39 40 41 42 43 44 45 46 47 48 49 50
000
ASUS43 KGLD 171559
RWRGLD

GOODLAND FORECAST AREA HOURLY WEATHER ROUNDUP
NATIONAL WEATHER SERVICE GOODLAND KS
900 AM MST FRI NOV 17 2017

...OFFICIAL OBSERVATIONS...

CITY           SKY/WX    TMP DP  RH WIND       PRES   REMARKS
GOODLAND KS    SUNNY     67  32  27 SW20G28   29.62F
HILL CITY KS   MOSUNNY   62  42  47 W5        29.57F
IMPERIAL NEB   NOT AVBL
MCCOOK NEB     SUNNY     54  36  50 N10       29.60S
AKRON CO       CLOUDY    61  28  28 W13       29.67R
BURLINGTON CO  SUNNY     65  31  28 SW15      29.67F
LIMON CO       SUNNY     63  31  30 W20G29    29.70S
$$

...UNOFFICIAL OBSERVATIONS...

CITY           SKY/WX    TMP DP  RH WIND       PRES   REMARKS
LENORA KS        N/A     64  32  30 CALM        N/A
NORTON KS      SUNNY     54  36  50 N6        29.60
SHARON SPRINGS   N/A     60  36  40 SW17        N/A
TRENTON NEB      N/A     54  32  43 N7          N/A
KIT CARSON CO    N/A     54  33  45 CALM        N/A
YUMA CO        FAIR      57  32  38 W8        29.65S
$$




USA.gov is the U.S. government's official web portal to all federal, state and local government web resources and services.